Manistique, MI

2:47 PM EDT on May 29, 2017 (GMT -0400)
Schoolcraft County

Weather History for KISQ - April, 2013

Change the Weather History Date:

Monday, April 8, 2013

  Actual Average Record
Temperature  
Mean Temperature 34 °F -  
Max Temperature 39 °F 43 °F 60 °F (1951)
Min Temperature 30 °F 25 °F -2 °F (1972)
Degree Days  
Heating Degree Days 30    
Moisture  
Dew Point 30 °F    
Average Humidity 84    
Maximum Humidity 93    
Minimum Humidity 75    
Precipitation  
Precipitation 0.00 in - - ()
Sea Level Pressure  
Sea Level Pressure 29.93 in    
Wind  
Wind Speed 7 mph (East)    
Max Wind Speed 15 mph    
Max Gust Speed 18 mph    
Visibility 9 miles    
Events Rain    
Averages and records for this station are not official NWS values.
T = Trace of Precipitation, MM = Missing Value Source: NWS Daily Summary

Daily Weather History Graph

Daily Weather History Graph

Search for Another Location

Airport or City:

Trip Planner

Search our weather history database for the weather conditions in past years. The results will help you decide how hot, cold, wet, or windy it might be!

Date:

Astronomy

Apr. 08, 2013 Rise Set
Actual Time 7:10 AM EDT 8:22 PM EDT
Civil Twilight 6:40 AM EDT 8:53 PM EDT
Nautical Twilight 6:03 AM EDT 9:30 PM EDT
Astronomical Twilight 5:24 AM EDT 10:09 PM EDT
Moon 6:05 AM EDT (4/8) 6:53 PM EDT (4/8)
Length of Visible Light 14h 13m
Length of Day
13h 11m
Waning Crescent, 3% of the Moon is Illuminated
Apr 8
Waning Crescent
Apr 10
New
Apr 18
First Quarter
Apr 25
Full
May 2
Last Quarter

Hourly Weather History & Observations

Time (EDT) Temp. Windchill Dew Point Humidity Pressure Visibility Wind Dir Wind Speed Gust Speed Precip Events Conditions
12:15 AM 30.2 °F 25.4 °F 26.6 °F 86% 30.00 in 10.0 mi East 4.6 mph - N/A   Clear
12:34 AM 30.2 °F - 26.6 °F 86% 30.00 in 10.0 mi Calm Calm - N/A   Clear
12:55 AM 30.2 °F 25.4 °F 28.4 °F 93% 30.00 in 10.0 mi ESE 4.6 mph - N/A   Clear
1:14 AM 32.0 °F 25.6 °F 28.4 °F 87% 30.00 in 10.0 mi SE 6.9 mph - N/A   Clear
1:34 AM 33.8 °F 27.0 °F 28.4 °F 81% 29.99 in 10.0 mi SE 8.1 mph - N/A   Clear
1:55 AM 33.8 °F 27.0 °F 28.4 °F 81% 29.99 in 10.0 mi SE 8.1 mph - N/A   Clear
2:14 AM 33.8 °F 27.7 °F 28.4 °F 81% 29.99 in 10.0 mi SE 6.9 mph - N/A   Clear
2:35 AM 33.8 °F 27.0 °F 28.4 °F 81% 29.99 in 10.0 mi SE 8.1 mph - N/A   Clear
2:55 AM 32.0 °F 25.6 °F 28.4 °F 87% 29.97 in 10.0 mi ESE 6.9 mph - N/A   Clear
3:14 AM 32.0 °F 25.6 °F 28.4 °F 87% 29.97 in 10.0 mi ESE 6.9 mph - N/A   Clear
3:35 AM 32.0 °F 24.8 °F 28.4 °F 87% 29.98 in 10.0 mi SE 8.1 mph - N/A   Clear
3:54 AM 33.8 °F 27.7 °F 28.4 °F 81% 29.97 in 10.0 mi SE 6.9 mph - N/A   Clear
4:15 AM 33.8 °F 27.7 °F 28.4 °F 81% 29.96 in 10.0 mi ESE 6.9 mph - N/A   Clear
4:35 AM 33.8 °F 27.0 °F 28.4 °F 81% 29.95 in 10.0 mi ESE 8.1 mph - N/A   Clear
4:54 AM 33.8 °F 27.7 °F 28.4 °F 81% 29.96 in 10.0 mi ESE 6.9 mph - N/A   Clear
5:15 AM 33.8 °F 28.6 °F 28.4 °F 81% 29.96 in 10.0 mi East 5.8 mph - N/A   Clear
5:34 AM 33.8 °F 27.7 °F 28.4 °F 81% 29.97 in 10.0 mi ESE 6.9 mph - N/A   Clear
5:55 AM 32.0 °F 28.7 °F 28.4 °F 87% 29.98 in 10.0 mi East 3.5 mph - N/A   Clear
6:14 AM 32.0 °F 27.5 °F 28.4 °F 87% 29.97 in 10.0 mi East 4.6 mph - N/A   Clear
6:35 AM 30.2 °F 24.3 °F 28.4 °F 93% 29.96 in 10.0 mi ENE 5.8 mph - N/A   Clear
6:55 AM 30.2 °F 24.3 °F 28.4 °F 93% 29.95 in 10.0 mi East 5.8 mph - N/A   Clear
7:14 AM 30.2 °F 25.4 °F 28.4 °F 93% 29.95 in 10.0 mi East 4.6 mph - N/A   Clear
7:35 AM 30.2 °F 26.7 °F 28.4 °F 93% 29.94 in 10.0 mi East 3.5 mph - N/A   Clear
7:54 AM 32.0 °F 25.6 °F 28.4 °F 87% 29.94 in 10.0 mi ESE 6.9 mph - N/A   Clear
8:14 AM 33.8 °F 27.0 °F 28.4 °F 81% 29.94 in 10.0 mi East 8.1 mph - N/A   Clear
8:35 AM 33.8 °F 27.0 °F 30.2 °F 87% 29.93 in 10.0 mi East 8.1 mph - N/A   Clear
8:54 AM 33.8 °F 25.3 °F 30.2 °F 87% 29.94 in 10.0 mi ESE 11.5 mph - N/A   Scattered Clouds
9:15 AM 35.6 °F 29.2 °F 30.2 °F 81% 29.93 in 10.0 mi East 8.1 mph 16.1 mph N/A   Scattered Clouds
9:35 AM 33.8 °F 24.3 °F 30.2 °F 87% 29.91 in 10.0 mi East 13.8 mph - N/A   Scattered Clouds
9:54 AM 33.8 °F 25.3 °F 30.2 °F 87% 29.91 in 10.0 mi East 11.5 mph - N/A   Scattered Clouds
10:15 AM 35.6 °F 28.6 °F 30.2 °F 81% 29.91 in 10.0 mi ESE 9.2 mph 16.1 mph N/A   Scattered Clouds
10:34 AM 35.6 °F 28.0 °F 30.2 °F 81% 29.91 in 10.0 mi East 10.4 mph - N/A   Mostly Cloudy
10:55 AM 35.6 °F 29.9 °F 30.2 °F 81% 29.91 in 10.0 mi East 6.9 mph - N/A   Overcast
11:14 AM 35.6 °F 29.2 °F 30.2 °F 81% 29.90 in 10.0 mi East 8.1 mph - N/A   Overcast
11:35 AM 35.6 °F 28.0 °F 30.2 °F 81% 29.89 in 10.0 mi ENE 10.4 mph - N/A   Overcast
11:55 AM 35.6 °F 27.1 °F 28.4 °F 75% 29.88 in 10.0 mi East 12.7 mph - N/A   Overcast
12:14 PM 35.6 °F 28.6 °F 28.4 °F 75% 29.87 in 10.0 mi East 9.2 mph - N/A   Overcast
12:35 PM 35.6 °F 27.5 °F 30.2 °F 81% 29.87 in 10.0 mi ENE 11.5 mph 17.3 mph N/A Rain Rain
12:54 PM 35.6 °F 29.9 °F 30.2 °F 81% 29.87 in 10.0 mi East 6.9 mph - N/A   Light Drizzle
1:14 PM 35.6 °F 29.2 °F 30.2 °F 81% 29.89 in 10.0 mi East 8.1 mph - N/A   Mostly Cloudy
1:35 PM 37.4 °F 32.1 °F 30.2 °F 75% 29.88 in 10.0 mi East 6.9 mph - N/A   Mostly Cloudy
1:54 PM 37.4 °F 29.8 °F 30.2 °F 75% 29.87 in 10.0 mi East 11.5 mph - N/A Rain Light Rain
2:15 PM 37.4 °F 29.8 °F 30.2 °F 75% 29.86 in 10.0 mi East 11.5 mph 17.3 mph N/A   Mostly Cloudy
2:34 PM 37.4 °F 28.5 °F 30.2 °F 75% 29.85 in 10.0 mi East 15.0 mph - N/A   Scattered Clouds
2:55 PM 37.4 °F 29.3 °F 30.2 °F 75% 29.85 in 10.0 mi East 12.7 mph 18.4 mph N/A   Clear
3:15 PM 39.2 °F 32.0 °F 32.0 °F 75% 29.85 in 10.0 mi ENE 11.5 mph 16.1 mph N/A   Scattered Clouds
3:34 PM 39.2 °F 32.0 °F 32.0 °F 75% 29.85 in 10.0 mi East 11.5 mph 17.3 mph N/A   Scattered Clouds
3:55 PM 39.2 °F 32.0 °F 32.0 °F 75% 29.84 in 10.0 mi ENE 11.5 mph 17.3 mph N/A   Clear
4:14 PM 39.2 °F 33.0 °F 32.0 °F 75% 29.85 in 10.0 mi ENE 9.2 mph - N/A   Scattered Clouds
4:34 PM 39.2 °F 32.0 °F 32.0 °F 75% 29.85 in 10.0 mi ENE 11.5 mph - N/A   Mostly Cloudy
4:55 PM 37.4 °F 29.8 °F 32.0 °F 81% 29.85 in 10.0 mi ENE 11.5 mph - N/A Rain Light Rain
5:14 PM 37.4 °F 30.8 °F 32.0 °F 81% 29.86 in 10.0 mi ENE 9.2 mph - N/A   Light Drizzle
5:35 PM 37.4 °F 32.8 °F 33.8 °F 87% 29.87 in 10.0 mi ENE 5.8 mph - N/A Rain Light Rain
5:55 PM 37.4 °F 32.8 °F 33.8 °F 87% 29.87 in 7.0 mi ENE 5.8 mph - N/A Rain Light Rain
6:14 PM 37.4 °F 32.8 °F 33.8 °F 87% 29.87 in 7.0 mi East 5.8 mph - N/A Rain Light Rain
6:35 PM 35.6 °F 31.7 °F 33.8 °F 93% 29.88 in 4.0 mi ENE 4.6 mph - N/A Rain Light Rain
6:54 PM 35.6 °F 29.9 °F 33.8 °F 93% 29.89 in 5.0 mi East 6.9 mph - N/A Rain Light Rain
7:15 PM 35.6 °F 29.2 °F 33.8 °F 93% 29.89 in 5.0 mi East 8.1 mph - N/A Rain Light Rain
7:35 PM 35.6 °F 29.2 °F 33.8 °F 93% 29.90 in 5.0 mi East 8.1 mph - N/A Rain Light Rain
7:54 PM 35.6 °F 30.7 °F 32.0 °F 87% 29.91 in 7.0 mi East 5.8 mph - N/A Rain Light Rain
8:15 PM 35.6 °F 30.7 °F 32.0 °F 87% 29.92 in 10.0 mi ENE 5.8 mph - N/A   Drizzle
8:34 PM 35.6 °F 29.9 °F 32.0 °F 87% 29.92 in 10.0 mi East 6.9 mph - N/A   Light Drizzle
8:54 PM 35.6 °F 32.8 °F 32.0 °F 87% 29.93 in 10.0 mi NE 3.5 mph - N/A Rain Light Rain
9:14 PM 35.6 °F - 32.0 °F 87% 29.95 in 10.0 mi Calm Calm - N/A   Overcast
9:35 PM 33.8 °F 30.8 °F 32.0 °F 93% 29.97 in 10.0 mi NNW 3.5 mph - N/A   Overcast
9:55 PM 35.6 °F 31.7 °F 32.0 °F 87% 29.98 in 10.0 mi NW 4.6 mph - N/A   Overcast
10:14 PM 35.6 °F 30.7 °F 32.0 °F 87% 30.00 in 7.0 mi NW 5.8 mph - N/A   Overcast
10:35 PM 35.6 °F 32.8 °F 32.0 °F 87% 30.00 in 3.0 mi North 3.5 mph - N/A   Drizzle
10:54 PM 35.6 °F 32.8 °F 32.0 °F 87% 30.01 in 4.0 mi NNW 3.5 mph - N/A   Light Drizzle
11:14 PM 33.8 °F 30.8 °F 32.0 °F 93% 30.01 in 3.0 mi NNW 3.5 mph - N/A   Overcast
11:34 PM 33.8 °F - 32.0 °F 93% 30.02 in 5.0 mi Calm Calm - N/A   Overcast
11:54 PM 33.8 °F - 32.0 °F 93% 30.02 in 5.0 mi Calm Calm - N/A   Overcast